Location: Bennemühlen
(52.5740°N, 9.7135°E)
Time: 16:12:44
(UTC+00:00)

Tiros 1 despin weight - Pass Details

Date: 18 February 2026
Orbit: 556 x 593 km, 48.2° (Epoch: 11 March)

Event Time Altitude Azimuth Distance (km) Brightness Sun altitude
Rises 15:27:59 0° 237° (WSW) 2,734 ? 8.9°
Reaches altitude 10° 15:30:21 10° 229° (SW) 1,838 ? 8.6°
Maximum altitude 15:34:11 35° 163° (SSE) 907 ? 8.2°
Drops below altitude 10° 15:38:01 10° 97° (E) 1,838 ? 7.7°
Sets 15:40:23 0° 89° (E) 2,736 ? 7.3°
